User: anonymous   Login
Location: Home
(44.6062°N, 75.6910°W)
Time: 13:33:29
(UTC-05:00)
Language:

Kosmos-931 - Orbit

View from above orbital plane
View from above orbital plane
View from above satellite
View from above satellite

Ground track
Ground track

The orbit data is extracted from the following two-line orbital elements,

1 10150U 77068A   17351.92716382 -.00000343 +00000-0 +00000-0 0  9991
2 10150 068.7011 231.5655 5519025 048.0828 220.6567 02.00367153296514
Epoch (UTC): 17 December 2017 22:15:06
Eccentricity: 0.5519025
inclination: 68.7011°
perigee height: 5531 km
apogee height: 34867 km
right ascension of ascending node: 231.5655°
argument of perigee: 48.0828°
revolutions per day: 2.00367153
mean anomaly at epoch: 220.6567°
orbit number at epoch: 29651

The dashed part of the orbit path shows where the satellite is in the earth's shadow,  

DLR